Year,Month,Day,Hour,Minute,Value (Times are PST for windgust in km/hr)
2006,03,07,00,00,6.40
2006,03,07,00,01,3.20
2006,03,07,00,02,6.40
2006,03,07,00,03,3.20
2006,03,07,00,04,8.10
2006,03,07,00,05,9.60
2006,03,07,00,06,8.10
2006,03,07,00,07,3.20
2006,03,07,00,08,3.20
2006,03,07,00,09,3.20
2006,03,07,00,10,8.10
2006,03,07,00,11,8.10
2006,03,07,00,12,4.80
2006,03,07,00,13,8.10
2006,03,07,00,14,4.80
2006,03,07,00,15,3.20
2006,03,07,00,16,0.00
2006,03,07,00,17,0.00
2006,03,07,00,18,1.60
2006,03,07,00,19,6.40
2006,03,07,00,20,6.40
2006,03,07,00,21,4.80
2006,03,07,00,22,8.10
2006,03,07,00,23,4.80
2006,03,07,00,24,1.60
2006,03,07,00,25,1.60
2006,03,07,00,26,3.20
2006,03,07,00,27,1.60
2006,03,07,00,28,3.20
2006,03,07,00,29,0.00
2006,03,07,00,30,1.60
2006,03,07,00,31,1.60
2006,03,07,00,32,0.00
2006,03,07,00,33,1.60
2006,03,07,00,34,3.20
2006,03,07,00,35,3.20
2006,03,07,00,36,3.20
2006,03,07,00,37,3.20
2006,03,07,00,38,0.00
2006,03,07,00,39,0.00
2006,03,07,00,40,1.60
2006,03,07,00,41,0.00
2006,03,07,00,42,0.00
2006,03,07,00,43,4.80
2006,03,07,00,44,4.80
2006,03,07,00,45,1.60
2006,03,07,00,46,3.20
2006,03,07,00,47,3.20
2006,03,07,00,48,3.20
2006,03,07,00,49,3.20
2006,03,07,00,50,0.00
2006,03,07,00,51,0.00
2006,03,07,00,52,0.00
2006,03,07,00,53,0.00
2006,03,07,00,54,0.00
2006,03,07,00,55,0.00
2006,03,07,00,56,0.00
2006,03,07,00,57,0.00
2006,03,07,00,58,0.00
2006,03,07,00,59,0.00
2006,03,07,01,00,0.00
2006,03,07,01,01,1.60
2006,03,07,01,02,0.00
2006,03,07,01,03,0.00
2006,03,07,01,04,0.00
2006,03,07,01,05,0.00
2006,03,07,01,06,0.00
2006,03,07,01,07,0.00
2006,03,07,01,08,0.00
2006,03,07,01,09,0.00
2006,03,07,01,10,1.60
2006,03,07,01,11,0.00
2006,03,07,01,12,0.00
2006,03,07,01,13,0.00
2006,03,07,01,14,0.00
2006,03,07,01,15,0.00
2006,03,07,01,16,0.00
2006,03,07,01,17,0.00
2006,03,07,01,18,0.00
2006,03,07,01,19,0.00
2006,03,07,01,20,0.00
2006,03,07,01,21,1.60
2006,03,07,01,22,0.00
2006,03,07,01,23,0.00
2006,03,07,01,24,0.00
2006,03,07,01,25,0.00
2006,03,07,01,26,0.00
2006,03,07,01,27,1.60
2006,03,07,01,28,4.80
2006,03,07,01,29,4.80
2006,03,07,01,30,0.00
2006,03,07,01,31,0.00
2006,03,07,01,32,3.20
2006,03,07,01,33,4.80
2006,03,07,01,34,3.20
2006,03,07,01,35,3.20
2006,03,07,01,36,0.00
2006,03,07,01,37,0.00
2006,03,07,01,38,1.60
2006,03,07,01,39,3.20
2006,03,07,01,40,4.80
2006,03,07,01,41,1.60
2006,03,07,01,42,0.00
2006,03,07,01,43,0.00
2006,03,07,01,44,0.00
2006,03,07,01,45,0.00
2006,03,07,01,46,0.00
2006,03,07,01,47,1.60
2006,03,07,01,48,0.00
2006,03,07,01,49,0.00
2006,03,07,01,50,0.00
2006,03,07,01,51,3.20
2006,03,07,01,52,6.40
2006,03,07,01,53,3.20
2006,03,07,01,54,4.80
2006,03,07,01,55,4.80
2006,03,07,01,56,8.10
2006,03,07,01,57,3.20
2006,03,07,01,58,3.20
2006,03,07,01,59,6.40
2006,03,07,02,00,1.60
2006,03,07,02,01,9.60
2006,03,07,02,02,8.10
2006,03,07,02,03,14.50
2006,03,07,02,04,6.40
2006,03,07,02,05,11.30
2006,03,07,02,06,9.60
2006,03,07,02,07,8.10
2006,03,07,02,08,4.80
2006,03,07,02,09,4.80
2006,03,07,02,10,9.60
2006,03,07,02,11,4.80
2006,03,07,02,12,6.40
2006,03,07,02,13,9.60
2006,03,07,02,14,11.30
2006,03,07,02,15,8.10
2006,03,07,02,16,8.10
2006,03,07,02,17,8.10
2006,03,07,02,18,6.40
2006,03,07,02,19,16.10
2006,03,07,02,20,12.90
2006,03,07,02,21,4.80
2006,03,07,02,22,4.80
2006,03,07,02,23,4.80
2006,03,07,02,24,8.10
2006,03,07,02,25,11.30
2006,03,07,02,26,19.30
2006,03,07,02,27,4.80
2006,03,07,02,28,8.10
2006,03,07,02,29,8.10
2006,03,07,02,30,8.10
2006,03,07,02,31,8.10
2006,03,07,02,32,12.90
2006,03,07,02,33,16.10
2006,03,07,02,34,4.80
2006,03,07,02,35,16.10
2006,03,07,02,36,14.50
2006,03,07,02,37,4.80
2006,03,07,02,38,6.40
2006,03,07,02,39,6.40
2006,03,07,02,40,4.80
2006,03,07,02,41,14.50
2006,03,07,02,42,9.60
2006,03,07,02,43,8.10
2006,03,07,02,44,6.40
2006,03,07,02,45,9.60
2006,03,07,02,46,6.40
2006,03,07,02,47,8.10
2006,03,07,02,48,8.10
2006,03,07,02,49,4.80
2006,03,07,02,50,4.80
2006,03,07,02,51,4.80
2006,03,07,02,52,4.80
2006,03,07,02,53,4.80
2006,03,07,02,54,3.20
2006,03,07,02,55,1.60
2006,03,07,02,56,3.20
2006,03,07,02,57,8.10
2006,03,07,02,58,9.60
2006,03,07,02,59,11.30
2006,03,07,03,00,8.10
2006,03,07,03,01,9.60
2006,03,07,03,02,11.30
2006,03,07,03,03,6.40
2006,03,07,03,04,6.40
2006,03,07,03,05,8.10
2006,03,07,03,06,6.40
2006,03,07,03,07,6.40
2006,03,07,03,08,8.10
2006,03,07,03,09,11.30
2006,03,07,03,10,9.60
2006,03,07,03,11,9.60
2006,03,07,03,12,4.80
2006,03,07,03,13,4.80
2006,03,07,03,14,3.20
2006,03,07,03,15,9.60
2006,03,07,03,16,9.60
2006,03,07,03,17,9.60
2006,03,07,03,18,4.80
2006,03,07,03,19,4.80
2006,03,07,03,20,4.80
2006,03,07,03,21,6.40
2006,03,07,03,22,8.10
2006,03,07,03,23,14.50
2006,03,07,03,24,11.30
2006,03,07,03,25,9.60
2006,03,07,03,26,17.70
2006,03,07,03,27,14.50
2006,03,07,03,28,9.60
2006,03,07,03,29,11.30
2006,03,07,03,30,11.30
2006,03,07,03,31,11.30
2006,03,07,03,32,9.60
2006,03,07,03,33,9.60
2006,03,07,03,34,9.60
2006,03,07,03,35,8.10
2006,03,07,03,36,8.10
2006,03,07,03,37,9.60
2006,03,07,03,38,11.30
2006,03,07,03,39,14.50
2006,03,07,03,40,8.10
2006,03,07,03,41,8.10
2006,03,07,03,42,6.40
2006,03,07,03,43,14.50
2006,03,07,03,44,6.40
2006,03,07,03,45,9.60
2006,03,07,03,46,9.60
2006,03,07,03,47,8.10
2006,03,07,03,48,4.80
2006,03,07,03,49,6.40
2006,03,07,03,50,11.30
2006,03,07,03,51,12.90
2006,03,07,03,52,11.30
2006,03,07,03,53,16.10
2006,03,07,03,54,8.10
2006,03,07,03,55,8.10
2006,03,07,03,56,9.60
2006,03,07,03,57,6.40
2006,03,07,03,58,9.60
2006,03,07,03,59,6.40
2006,03,07,04,00,8.10
2006,03,07,04,01,11.30
2006,03,07,04,02,11.30
2006,03,07,04,03,8.10
2006,03,07,04,04,9.60
2006,03,07,04,05,11.30
2006,03,07,04,06,8.10
2006,03,07,04,07,8.10
2006,03,07,04,08,8.10
2006,03,07,04,09,16.10
2006,03,07,04,10,12.90
2006,03,07,04,11,16.10
2006,03,07,04,12,12.90
2006,03,07,04,13,9.60
2006,03,07,04,14,12.90
2006,03,07,04,15,14.50
2006,03,07,04,16,14.50
2006,03,07,04,17,14.50
2006,03,07,04,18,9.60
2006,03,07,04,19,9.60
2006,03,07,04,20,8.10
2006,03,07,04,21,8.10
2006,03,07,04,22,9.60
2006,03,07,04,23,16.10
2006,03,07,04,24,17.70
2006,03,07,04,25,14.50
2006,03,07,04,26,12.90
2006,03,07,04,27,17.70
2006,03,07,04,28,12.90
2006,03,07,04,29,14.50
2006,03,07,04,30,9.60
2006,03,07,04,31,9.60
2006,03,07,04,32,9.60
2006,03,07,04,33,9.60
2006,03,07,04,34,14.50
2006,03,07,04,35,16.10
2006,03,07,04,36,8.10
2006,03,07,04,37,12.90
2006,03,07,04,38,16.10
2006,03,07,04,39,6.40
2006,03,07,04,40,19.30
2006,03,07,04,41,16.10
2006,03,07,04,42,11.30
2006,03,07,04,43,16.10
2006,03,07,04,44,14.50
2006,03,07,04,45,11.30
2006,03,07,04,46,17.70
2006,03,07,04,47,11.30
2006,03,07,04,48,11.30
2006,03,07,04,49,9.60
2006,03,07,04,50,11.30
2006,03,07,04,51,11.30
2006,03,07,04,52,12.90
2006,03,07,04,53,11.30
2006,03,07,04,54,12.90
2006,03,07,04,55,12.90
2006,03,07,04,56,9.60
2006,03,07,04,57,11.30
2006,03,07,04,58,11.30
2006,03,07,04,59,9.60
2006,03,07,05,00,12.90
2006,03,07,05,01,12.90
2006,03,07,05,02,12.90
2006,03,07,05,03,14.50
2006,03,07,05,04,12.90
2006,03,07,05,05,11.30
2006,03,07,05,06,11.30
2006,03,07,05,07,11.30
2006,03,07,05,08,9.60
2006,03,07,05,09,11.30
2006,03,07,05,10,6.40
2006,03,07,05,11,11.30
2006,03,07,05,12,9.60
2006,03,07,05,13,9.60
2006,03,07,05,14,9.60
2006,03,07,05,15,8.10
2006,03,07,05,16,9.60
2006,03,07,05,17,14.50
2006,03,07,05,18,9.60
2006,03,07,05,19,9.60
2006,03,07,05,20,9.60
2006,03,07,05,21,11.30
2006,03,07,05,22,11.30
2006,03,07,05,23,12.90
2006,03,07,05,24,14.50
2006,03,07,05,25,12.90
2006,03,07,05,26,12.90
2006,03,07,05,27,19.30
2006,03,07,05,28,11.30
2006,03,07,05,29,8.10
2006,03,07,05,30,14.50
2006,03,07,05,31,12.90
2006,03,07,05,32,19.30
2006,03,07,05,33,22.50
2006,03,07,05,34,22.50
2006,03,07,05,35,14.50
2006,03,07,05,36,16.10
2006,03,07,05,37,17.70
2006,03,07,05,38,16.10
2006,03,07,05,39,17.70
2006,03,07,05,40,20.90
2006,03,07,05,41,14.50
2006,03,07,05,42,9.60
2006,03,07,05,43,16.10
2006,03,07,05,44,19.30
2006,03,07,05,45,16.10
2006,03,07,05,46,17.70
2006,03,07,05,47,17.70
2006,03,07,05,48,20.90
2006,03,07,05,49,17.70
2006,03,07,05,50,17.70
2006,03,07,05,51,19.30
2006,03,07,05,52,17.70
2006,03,07,05,53,16.10
2006,03,07,05,54,16.10
2006,03,07,05,55,19.30
2006,03,07,05,56,16.10
2006,03,07,05,57,19.30
2006,03,07,05,58,16.10
2006,03,07,05,59,17.70
2006,03,07,06,00,16.10
2006,03,07,06,01,14.50
2006,03,07,06,02,12.90
2006,03,07,06,03,11.30
2006,03,07,06,04,17.70
2006,03,07,06,05,14.50
2006,03,07,06,06,14.50
2006,03,07,06,07,16.10
2006,03,07,06,08,14.50
2006,03,07,06,09,14.50
2006,03,07,06,10,16.10
2006,03,07,06,11,14.50
2006,03,07,06,12,14.50
2006,03,07,06,13,14.50
2006,03,07,06,14,12.90
2006,03,07,06,15,12.90
2006,03,07,06,16,11.30
2006,03,07,06,17,17.70
2006,03,07,06,18,19.30
2006,03,07,06,19,19.30
2006,03,07,06,20,14.50
2006,03,07,06,21,17.70
2006,03,07,06,22,14.50
2006,03,07,06,23,19.30
2006,03,07,06,24,19.30
2006,03,07,06,25,16.10
2006,03,07,06,26,17.70
2006,03,07,06,27,11.30
2006,03,07,06,28,16.10
2006,03,07,06,29,14.50
2006,03,07,06,30,8.10
2006,03,07,06,31,8.10
2006,03,07,06,32,11.30
2006,03,07,06,33,14.50
2006,03,07,06,34,14.50
2006,03,07,06,35,11.30
2006,03,07,06,36,14.50
2006,03,07,06,37,16.10
2006,03,07,06,38,11.30
2006,03,07,06,39,3.20
2006,03,07,06,40,3.20
2006,03,07,06,41,8.10
2006,03,07,06,42,8.10
2006,03,07,06,43,8.10
2006,03,07,06,44,11.30
2006,03,07,06,45,6.40
2006,03,07,06,46,9.60
2006,03,07,06,47,8.10
2006,03,07,06,48,8.10
2006,03,07,06,49,8.10
2006,03,07,06,50,9.60
2006,03,07,06,51,4.80
2006,03,07,06,52,6.40
2006,03,07,06,53,8.10
2006,03,07,06,54,8.10
2006,03,07,06,55,4.80
2006,03,07,06,56,6.40
2006,03,07,06,57,6.40
2006,03,07,06,58,4.80
2006,03,07,06,59,3.20
2006,03,07,07,00,6.40
2006,03,07,07,01,4.80
2006,03,07,07,02,4.80
2006,03,07,07,03,3.20
2006,03,07,07,04,1.60
2006,03,07,07,05,6.40
2006,03,07,07,06,4.80
2006,03,07,07,07,4.80
2006,03,07,07,08,3.20
2006,03,07,07,09,3.20
2006,03,07,07,10,3.20
2006,03,07,07,11,3.20
2006,03,07,07,12,3.20
2006,03,07,07,13,6.40
2006,03,07,07,14,4.80
2006,03,07,07,15,4.80
2006,03,07,07,16,3.20
2006,03,07,07,17,4.80
2006,03,07,07,18,4.80
2006,03,07,07,19,4.80
2006,03,07,07,20,0.00
2006,03,07,07,21,6.40
2006,03,07,07,22,8.10
2006,03,07,07,23,8.10
2006,03,07,07,24,3.20
2006,03,07,07,25,4.80
2006,03,07,07,26,6.40
2006,03,07,07,27,8.10
2006,03,07,07,28,6.40
2006,03,07,07,29,8.10
2006,03,07,07,30,8.10
2006,03,07,07,31,6.40
2006,03,07,07,32,6.40
2006,03,07,07,33,8.10
2006,03,07,07,34,8.10
2006,03,07,07,35,6.40
2006,03,07,07,36,4.80
2006,03,07,07,37,4.80
2006,03,07,07,38,4.80
2006,03,07,07,39,8.10
2006,03,07,07,40,4.80
2006,03,07,07,41,0.00
2006,03,07,07,42,6.40
2006,03,07,07,43,4.80
2006,03,07,07,44,4.80
2006,03,07,07,45,3.20
2006,03,07,07,46,8.10
2006,03,07,07,47,6.40
2006,03,07,07,48,4.80
2006,03,07,07,49,3.20
2006,03,07,07,50,3.20
2006,03,07,07,51,0.00
2006,03,07,07,52,0.00
2006,03,07,07,53,1.60
2006,03,07,07,54,3.20
2006,03,07,07,55,4.80
2006,03,07,07,56,1.60
2006,03,07,07,57,0.00
2006,03,07,07,58,1.60
2006,03,07,07,59,3.20
2006,03,07,08,00,3.20
2006,03,07,08,01,3.20
2006,03,07,08,02,3.20
2006,03,07,08,03,1.60
2006,03,07,08,04,4.80
2006,03,07,08,05,6.40
2006,03,07,08,06,8.10
2006,03,07,08,07,9.60
2006,03,07,08,08,6.40
2006,03,07,08,09,8.10
2006,03,07,08,10,6.40
2006,03,07,08,11,8.10
2006,03,07,08,12,6.40
2006,03,07,08,13,9.60
2006,03,07,08,14,8.10
2006,03,07,08,15,9.60
2006,03,07,08,16,9.60
2006,03,07,08,17,11.30
2006,03,07,08,18,14.50
2006,03,07,08,19,8.10
2006,03,07,08,20,9.60
2006,03,07,08,21,8.10
2006,03,07,08,22,8.10
2006,03,07,08,23,6.40
2006,03,07,08,24,8.10
2006,03,07,08,25,9.60
2006,03,07,08,26,8.10
2006,03,07,08,27,11.30
2006,03,07,08,28,11.30
2006,03,07,08,29,8.10
2006,03,07,08,30,8.10
2006,03,07,08,31,9.60
2006,03,07,08,32,8.10
2006,03,07,08,33,8.10
2006,03,07,08,34,11.30
2006,03,07,08,35,11.30
2006,03,07,08,36,11.30
2006,03,07,08,37,11.30
2006,03,07,08,38,9.60
2006,03,07,08,39,8.10
2006,03,07,08,40,11.30
2006,03,07,08,41,9.60
2006,03,07,08,42,11.30
2006,03,07,08,43,8.10
2006,03,07,08,44,9.60
2006,03,07,08,45,11.30
2006,03,07,08,46,8.10
2006,03,07,08,47,11.30
2006,03,07,08,48,14.50
2006,03,07,08,49,11.30
2006,03,07,08,50,11.30
2006,03,07,08,51,14.50
2006,03,07,08,52,11.30
2006,03,07,08,53,8.10
2006,03,07,08,54,11.30
2006,03,07,08,55,8.10
2006,03,07,08,56,16.10
2006,03,07,08,57,8.10
2006,03,07,08,58,6.40
2006,03,07,08,59,9.60
2006,03,07,09,00,9.60
2006,03,07,09,01,9.60
2006,03,07,09,02,9.60
2006,03,07,09,03,9.60
2006,03,07,09,04,8.10
2006,03,07,09,05,9.60
2006,03,07,09,06,6.40
2006,03,07,09,07,8.10
2006,03,07,09,08,14.50
2006,03,07,09,09,22.50
2006,03,07,09,10,19.30
2006,03,07,09,11,16.10
2006,03,07,09,12,17.70
2006,03,07,09,13,22.50
2006,03,07,09,14,20.90
2006,03,07,09,15,22.50
2006,03,07,09,16,22.50
2006,03,07,09,17,16.10
2006,03,07,09,18,17.70
2006,03,07,09,19,20.90
2006,03,07,09,20,30.60
2006,03,07,09,21,16.10
2006,03,07,09,22,14.50
2006,03,07,09,23,8.10
2006,03,07,09,24,20.90
2006,03,07,09,25,17.70
2006,03,07,09,26,20.90
2006,03,07,09,27,20.90
2006,03,07,09,28,22.50
2006,03,07,09,29,19.30
2006,03,07,09,30,19.30
2006,03,07,09,31,22.50
2006,03,07,09,32,16.10
2006,03,07,09,33,22.50
2006,03,07,09,34,22.50
2006,03,07,09,35,14.50
2006,03,07,09,36,11.30
2006,03,07,09,37,20.90
2006,03,07,09,38,16.10
2006,03,07,09,39,27.40
2006,03,07,09,40,17.70
2006,03,07,09,41,20.90
2006,03,07,09,42,17.70
2006,03,07,09,43,20.90
2006,03,07,09,44,22.50
2006,03,07,09,45,17.70
2006,03,07,09,46,16.10
2006,03,07,09,47,19.30
2006,03,07,09,48,20.90
2006,03,07,09,49,22.50
2006,03,07,09,50,20.90
2006,03,07,09,51,25.70
2006,03,07,09,52,17.70
2006,03,07,09,53,16.10
2006,03,07,09,54,19.30
2006,03,07,09,55,17.70
2006,03,07,09,56,29.00
2006,03,07,09,57,24.20
2006,03,07,09,58,27.40
2006,03,07,09,59,25.70
2006,03,07,10,00,20.90
2006,03,07,10,01,29.00
2006,03,07,10,02,33.80
2006,03,07,10,03,27.40
2006,03,07,10,04,20.90
2006,03,07,10,05,16.10
2006,03,07,10,06,22.50
2006,03,07,10,07,30.60
2006,03,07,10,08,16.10
2006,03,07,10,09,17.70
2006,03,07,10,10,22.50
2006,03,07,10,11,30.60
2006,03,07,10,12,33.80
2006,03,07,10,13,25.70
2006,03,07,10,14,25.70
2006,03,07,10,15,24.20
2006,03,07,10,16,25.70
2006,03,07,10,17,27.40
2006,03,07,10,18,20.90
2006,03,07,10,19,32.20
2006,03,07,10,20,32.20
2006,03,07,10,21,20.90
2006,03,07,10,22,30.60
2006,03,07,10,23,17.70
2006,03,07,10,24,19.30
2006,03,07,10,25,25.70
2006,03,07,10,26,22.50
2006,03,07,10,27,24.20
2006,03,07,10,28,16.10
2006,03,07,10,29,24.20
2006,03,07,10,30,22.50
2006,03,07,10,31,19.30
2006,03,07,10,32,20.90
2006,03,07,10,33,20.90
2006,03,07,10,34,20.90
2006,03,07,10,35,32.20
2006,03,07,10,36,24.20
2006,03,07,10,37,27.40
2006,03,07,10,38,30.60
2006,03,07,10,39,40.20
2006,03,07,10,40,25.70
2006,03,07,10,41,30.60
2006,03,07,10,42,32.20
2006,03,07,10,43,37.00
2006,03,07,10,44,29.00
2006,03,07,10,45,27.40
2006,03,07,10,46,27.40
2006,03,07,10,47,29.00
2006,03,07,10,48,27.40
2006,03,07,10,49,27.40
2006,03,07,10,50,24.20
2006,03,07,10,51,32.20
2006,03,07,10,52,33.80
2006,03,07,10,53,32.20
2006,03,07,10,54,25.70
2006,03,07,10,55,22.50
2006,03,07,10,56,33.80
2006,03,07,10,57,37.00
2006,03,07,10,58,35.40
2006,03,07,10,59,33.80
2006,03,07,11,00,30.60
2006,03,07,11,01,33.80
2006,03,07,11,02,29.00
2006,03,07,11,03,33.80
2006,03,07,11,04,29.00
2006,03,07,11,05,25.70
2006,03,07,11,06,33.80
2006,03,07,11,07,29.00
2006,03,07,11,08,29.00
2006,03,07,11,09,30.60
2006,03,07,11,10,35.40
2006,03,07,11,11,27.40
2006,03,07,11,12,19.30
2006,03,07,11,13,20.90
2006,03,07,11,14,24.20
2006,03,07,11,15,29.00
2006,03,07,11,16,27.40
2006,03,07,11,17,32.20
2006,03,07,11,18,33.80
2006,03,07,11,19,25.70
2006,03,07,11,20,24.20
2006,03,07,11,21,22.50
2006,03,07,11,22,17.70
2006,03,07,11,23,27.40
2006,03,07,11,24,19.30
2006,03,07,11,25,35.40
2006,03,07,11,26,24.20
2006,03,07,11,27,30.60
2006,03,07,11,28,27.40
2006,03,07,11,29,30.60
2006,03,07,11,30,30.60
2006,03,07,11,31,27.40
2006,03,07,11,32,25.70
2006,03,07,11,33,33.80
2006,03,07,11,34,29.00
2006,03,07,11,35,20.90
2006,03,07,11,36,22.50
2006,03,07,11,37,25.70
2006,03,07,11,38,20.90
2006,03,07,11,39,24.20
2006,03,07,11,40,24.20
2006,03,07,11,41,11.30
2006,03,07,11,42,30.60
2006,03,07,11,43,24.20
2006,03,07,11,44,29.00
2006,03,07,11,45,20.90
2006,03,07,11,46,20.90
2006,03,07,11,47,37.00
2006,03,07,11,48,24.20
2006,03,07,11,49,29.00
2006,03,07,11,50,24.20
2006,03,07,11,51,22.50
2006,03,07,11,52,17.70
2006,03,07,11,53,27.40
2006,03,07,11,54,25.70
2006,03,07,11,55,32.20
2006,03,07,11,56,32.20
2006,03,07,11,57,32.20
2006,03,07,11,58,30.60
2006,03,07,11,59,29.00
2006,03,07,12,00,25.70
2006,03,07,12,01,25.70
2006,03,07,12,02,29.00
2006,03,07,12,03,32.20
2006,03,07,12,04,25.70
2006,03,07,12,05,27.40
2006,03,07,12,06,16.10
2006,03,07,12,07,27.40
2006,03,07,12,08,25.70
2006,03,07,12,09,22.50
2006,03,07,12,10,27.40
2006,03,07,12,11,24.20
2006,03,07,12,12,25.70
2006,03,07,12,13,25.70
2006,03,07,12,14,24.20
2006,03,07,12,15,24.20
2006,03,07,12,16,24.20
2006,03,07,12,17,22.50
2006,03,07,12,18,27.40
2006,03,07,12,19,22.50
2006,03,07,12,20,24.20
2006,03,07,12,21,24.20
2006,03,07,12,22,16.10
2006,03,07,12,23,14.50
2006,03,07,12,24,8.10
2006,03,07,12,25,11.30
2006,03,07,12,26,22.50
2006,03,07,12,27,20.90
2006,03,07,12,28,22.50
2006,03,07,12,29,20.90
2006,03,07,12,30,27.40
2006,03,07,12,31,25.70
2006,03,07,12,32,35.40
2006,03,07,12,33,29.00
2006,03,07,12,34,27.40
2006,03,07,12,35,22.50
2006,03,07,12,36,29.00
2006,03,07,12,37,20.90
2006,03,07,12,38,25.70
2006,03,07,12,39,33.80
2006,03,07,12,40,25.70
2006,03,07,12,41,20.90
2006,03,07,12,42,30.60
2006,03,07,12,43,22.50
2006,03,07,12,44,22.50
2006,03,07,12,45,19.30
2006,03,07,12,46,17.70
2006,03,07,12,47,22.50
2006,03,07,12,48,30.60
2006,03,07,12,49,11.30
2006,03,07,12,50,24.20
2006,03,07,12,51,22.50
2006,03,07,12,52,19.30
2006,03,07,12,53,29.00
2006,03,07,12,54,20.90
2006,03,07,12,55,16.10
2006,03,07,12,56,19.30
2006,03,07,12,57,22.50
2006,03,07,12,58,22.50
2006,03,07,12,59,19.30
2006,03,07,13,00,17.70
2006,03,07,13,01,16.10
2006,03,07,13,02,22.50
2006,03,07,13,03,19.30
2006,03,07,13,04,11.30
2006,03,07,13,05,20.90
2006,03,07,13,06,19.30
2006,03,07,13,07,19.30
2006,03,07,13,08,22.50
2006,03,07,13,09,17.70
2006,03,07,13,10,16.10
2006,03,07,13,11,24.20
2006,03,07,13,12,29.00
2006,03,07,13,13,29.00
2006,03,07,13,14,25.70
2006,03,07,13,15,17.70
2006,03,07,13,16,19.30
2006,03,07,13,17,27.40
2006,03,07,13,18,33.80
2006,03,07,13,19,37.00
2006,03,07,13,20,32.20
2006,03,07,13,21,29.00
2006,03,07,13,22,29.00
2006,03,07,13,23,20.90
2006,03,07,13,24,27.40
2006,03,07,13,25,25.70
2006,03,07,13,26,27.40
2006,03,07,13,27,33.80
2006,03,07,13,28,30.60
2006,03,07,13,29,27.40
2006,03,07,13,30,27.40
2006,03,07,13,31,27.40
2006,03,07,13,32,22.50
2006,03,07,13,33,29.00
2006,03,07,13,34,27.40
2006,03,07,13,35,29.00
2006,03,07,13,36,25.70
2006,03,07,13,37,22.50
2006,03,07,13,38,14.50
2006,03,07,13,39,14.50
2006,03,07,13,40,14.50
2006,03,07,13,41,17.70
2006,03,07,13,42,17.70
2006,03,07,13,43,27.40
2006,03,07,13,44,29.00
2006,03,07,13,45,25.70
2006,03,07,13,46,19.30
2006,03,07,13,47,24.20
2006,03,07,13,48,25.70
2006,03,07,13,49,32.20
2006,03,07,13,50,33.80
2006,03,07,13,51,24.20
2006,03,07,13,52,14.50
2006,03,07,13,53,32.20
2006,03,07,13,54,29.00
2006,03,07,13,55,17.70
2006,03,07,13,56,9.60
2006,03,07,13,57,30.60
2006,03,07,13,58,27.40
2006,03,07,13,59,29.00
2006,03,07,14,00,35.40
2006,03,07,14,01,29.00
2006,03,07,14,02,27.40
2006,03,07,14,03,32.20
2006,03,07,14,04,32.20
2006,03,07,14,05,25.70
2006,03,07,14,06,27.40
2006,03,07,14,07,33.80
2006,03,07,14,08,35.40
2006,03,07,14,09,25.70
2006,03,07,14,10,25.70
2006,03,07,14,11,33.80
2006,03,07,14,12,27.40
2006,03,07,14,13,38.60
2006,03,07,14,14,30.60
2006,03,07,14,15,33.80
2006,03,07,14,16,37.00
2006,03,07,14,17,22.50
2006,03,07,14,18,35.40
2006,03,07,14,19,40.20
2006,03,07,14,20,35.40
2006,03,07,14,21,32.20
2006,03,07,14,22,27.40
2006,03,07,14,23,27.40
2006,03,07,14,24,41.80
2006,03,07,14,25,35.40
2006,03,07,14,26,27.40
2006,03,07,14,27,29.00
2006,03,07,14,28,32.20
2006,03,07,14,29,22.50
2006,03,07,14,30,30.60
2006,03,07,14,31,25.70
2006,03,07,14,32,17.70
2006,03,07,14,33,19.30
2006,03,07,14,34,29.00
2006,03,07,14,35,25.70
2006,03,07,14,36,25.70
2006,03,07,14,37,24.20
2006,03,07,14,38,16.10
2006,03,07,14,39,25.70
2006,03,07,14,40,29.00
2006,03,07,14,41,25.70
2006,03,07,14,42,27.40
2006,03,07,14,43,20.90
2006,03,07,14,44,32.20
2006,03,07,14,45,33.80
2006,03,07,14,46,29.00
2006,03,07,14,47,37.00
2006,03,07,14,48,25.70
2006,03,07,14,49,22.50
2006,03,07,14,50,27.40
2006,03,07,14,51,22.50
2006,03,07,14,52,22.50
2006,03,07,14,53,24.20
2006,03,07,14,54,19.30
2006,03,07,14,55,20.90
2006,03,07,14,56,29.00
2006,03,07,14,57,16.10
2006,03,07,14,58,22.50
2006,03,07,14,59,27.40
2006,03,07,15,00,22.50
2006,03,07,15,01,27.40
2006,03,07,15,02,30.60
2006,03,07,15,03,33.80
2006,03,07,15,04,24.20
2006,03,07,15,05,37.00
2006,03,07,15,06,29.00
2006,03,07,15,07,20.90
2006,03,07,15,08,20.90
2006,03,07,15,09,29.00
2006,03,07,15,10,32.20
2006,03,07,15,11,24.20
2006,03,07,15,12,30.60
2006,03,07,15,13,30.60
2006,03,07,15,14,17.70
2006,03,07,15,15,32.20
2006,03,07,15,16,32.20
2006,03,07,15,17,27.40
2006,03,07,15,18,30.60
2006,03,07,15,19,27.40
2006,03,07,15,20,24.20
2006,03,07,15,21,27.40
2006,03,07,15,22,32.20
2006,03,07,15,23,40.20
2006,03,07,15,24,27.40
2006,03,07,15,25,30.60
2006,03,07,15,26,25.70
2006,03,07,15,27,27.40
2006,03,07,15,28,33.80
2006,03,07,15,29,24.20
2006,03,07,15,30,22.50
2006,03,07,15,31,35.40
2006,03,07,15,32,27.40
2006,03,07,15,33,33.80
2006,03,07,15,34,33.80
2006,03,07,15,35,27.40
2006,03,07,15,36,27.40
2006,03,07,15,37,27.40
2006,03,07,15,38,20.90
2006,03,07,15,39,24.20
2006,03,07,15,40,30.60
2006,03,07,15,41,25.70
2006,03,07,15,42,32.20
2006,03,07,15,43,30.60
2006,03,07,15,44,35.40
2006,03,07,15,45,32.20
2006,03,07,15,46,30.60
2006,03,07,15,47,22.50
2006,03,07,15,48,33.80
2006,03,07,15,49,24.20
2006,03,07,15,50,25.70
2006,03,07,15,51,22.50
2006,03,07,15,52,22.50
2006,03,07,15,53,22.50
2006,03,07,15,54,24.20
2006,03,07,15,55,19.30
2006,03,07,15,56,17.70
2006,03,07,15,57,16.10
2006,03,07,15,58,20.90
2006,03,07,15,59,17.70
2006,03,07,16,00,8.10
2006,03,07,16,01,11.30
2006,03,07,16,02,27.40
2006,03,07,16,03,19.30
2006,03,07,16,04,17.70
2006,03,07,16,05,30.60
2006,03,07,16,06,20.90
2006,03,07,16,07,20.90
2006,03,07,16,08,27.40
2006,03,07,16,09,19.30
2006,03,07,16,10,27.40
2006,03,07,16,11,29.00
2006,03,07,16,12,20.90
2006,03,07,16,13,24.20
2006,03,07,16,14,25.70
2006,03,07,16,15,20.90
2006,03,07,16,16,22.50
2006,03,07,16,17,24.20
2006,03,07,16,18,29.00
2006,03,07,16,19,24.20
2006,03,07,16,20,22.50
2006,03,07,16,21,32.20
2006,03,07,16,22,24.20
2006,03,07,16,23,29.00
2006,03,07,16,24,30.60
2006,03,07,16,25,22.50
2006,03,07,16,26,16.10
2006,03,07,16,27,22.50
2006,03,07,16,28,25.70
2006,03,07,16,29,33.80
2006,03,07,16,30,32.20
2006,03,07,16,31,16.10
2006,03,07,16,32,24.20
2006,03,07,16,33,20.90
2006,03,07,16,34,25.70
2006,03,07,16,35,20.90
2006,03,07,16,36,24.20
2006,03,07,16,37,19.30
2006,03,07,16,38,22.50
2006,03,07,16,39,24.20
2006,03,07,16,40,25.70
2006,03,07,16,41,32.20
2006,03,07,16,42,17.70
2006,03,07,16,43,17.70
2006,03,07,16,44,24.20
2006,03,07,16,45,22.50
2006,03,07,16,46,22.50
2006,03,07,16,47,30.60
2006,03,07,16,48,27.40
2006,03,07,16,49,20.90
2006,03,07,16,50,20.90
2006,03,07,16,51,20.90
2006,03,07,16,52,20.90
2006,03,07,16,53,29.00
2006,03,07,16,54,25.70
2006,03,07,16,55,22.50
2006,03,07,16,56,30.60
2006,03,07,16,57,22.50
2006,03,07,16,58,24.20
2006,03,07,16,59,20.90
2006,03,07,17,00,22.50
2006,03,07,17,01,30.60
2006,03,07,17,02,27.40
2006,03,07,17,03,25.70
2006,03,07,17,04,22.50
2006,03,07,17,05,20.90
2006,03,07,17,06,27.40
2006,03,07,17,07,24.20
2006,03,07,17,08,25.70
2006,03,07,17,09,24.20
2006,03,07,17,10,25.70
2006,03,07,17,11,25.70
2006,03,07,17,12,20.90
2006,03,07,17,13,16.10
2006,03,07,17,14,22.50
2006,03,07,17,15,19.30
2006,03,07,17,16,24.20
2006,03,07,17,17,25.70
2006,03,07,17,18,25.70
2006,03,07,17,19,22.50
2006,03,07,17,20,8.10
2006,03,07,17,21,11.30
2006,03,07,17,22,17.70
2006,03,07,17,23,25.70
2006,03,07,17,24,25.70
2006,03,07,17,25,27.40
2006,03,07,17,26,24.20
2006,03,07,17,27,22.50
2006,03,07,17,28,20.90
2006,03,07,17,29,17.70
2006,03,07,17,30,22.50
2006,03,07,17,31,30.60
2006,03,07,17,32,25.70
2006,03,07,17,33,25.70
2006,03,07,17,34,24.20
2006,03,07,17,35,24.20